Location: Newark
(60.0000°N, 100.0000°E)
Time: 08:50:25
(UTC+00:00)

N. Korean satellite - Pass Details

Date: 19 November 2019
Orbit: 456 x 506 km, 97.2° (Epoch: 06 December)

Event Time Altitude Azimuth Distance (km) Brightness Sun altitude
Rises 10:30:40 0° 180° (S) 2,574 10.5 -12.5°
Reaches altitude 10° 10:32:47 10° 186° (S) 1,703 9.6 -12.8°
Maximum altitude 10:36:20 46° 261° (W) 691 7.9 -13.2°
Drops below altitude 10° 10:39:56 10° 336° (NNW) 1,732 9.5 -13.7°
Sets 10:42:07 0° 342° (NNW) 2,625 10.3 -13.9°
